Orbital Elements at Epoch 2459200.5 (2020-Dec-17.0) TDB
Reference: JPL 31 (heliocentric ecliptic J2000)
Element | Value | Uncertainty (1-sigma) | Units |
e | .06095984450243482 | 3.2019e-08 | |
a | 2.572135442718896 | 1.115e-08 | au |
q | 2.41533846609155 | 8.0687e-08 | au |
i | 13.19435195781167 | 4.2538e-06 | deg |
node | 243.8315555782007 | 1.3825e-05 | deg |
peri | 41.36840157683726 | 4.2215e-05 | deg |
M | 97.3682335511824 | 3.781e-05 | deg |
tp | 2458792.975270395142 (2019-Nov-05.47527040) | 0.00015877 | TDB |
period | 1506.742982870589 4.13 | 9.7973e-06 2.682e-08 | d yr |
n | .2389259509369951 | 1.5536e-09 | deg/d |
Q | 2.728932419346241 | 1.183e-08 | au |
|
| | Orbit Determination Parameters
Additional Information
|